Location: Hokitika
(42.7170°S, 170.9670°E)
Time: 19:32:32
(UTC+13:00)

Timation 1 Rocket - Pass Details

Date: 24 January 2019
Orbit: 900 x 907 km, 70.0° (Epoch: 16 February)

Event Time Altitude Azimuth Distance (km) Brightness Sun altitude
Rises 23:20:34 0° 208° (SSW) 3,569 9.0 -19.4°
Reaches altitude 10° 23:23:06 10° 210° (SSW) 2,620 8.0 -19.6°
Maximum altitude 23:29:08 72° 292° (WNW) 960 4.4 -20.3°
Enters shadow 23:31:47 35° 8° (N) 1,434 4.9 -20.6°
